User: anonymous   Login
Location: The Jewett Observatory
(46.7288°N, 117.1525°W)
Time: 04:15:17
(UTC-08:00)
Language:

Cosmos 1844 Rocket - Orbit

View from above orbital plane
View from above orbital plane
View from above satellite
View from above satellite

Ground track
Ground track

The orbit data is extracted from the following two-line orbital elements,

1 17974U 87041B   15023.89393309 -.00000249  00000-0 -99577-4 0  3096
2 17974 071.0097 313.8987 0016330 288.1163 136.9963 14.17144500432671
Epoch (UTC): 23 January 2015 21:27:15
Eccentricity: 0.0016330
inclination: 71.0097°
perigee height: 823 km
apogee height: 847 km
right ascension of ascending node: 313.8987°
argument of perigee: 288.1163°
revolutions per day: 14.17144500
mean anomaly at epoch: 136.9963°
orbit number at epoch: 43267

The dashed part of the orbit path shows where the satellite is in the earth's shadow,  

DLR